{"data":{"norad_id":55375,"intl_designator":"2023-013AW","name":"STARLINK-5588","alt_names":[],"object_type":"PAYLOAD","status":"ACTIVE","operator":null,"country":"US","launch_date":"2023-01-26","launch_site_code":"AFETR","launch_vehicle":null,"mission":null,"orbit_class":"UNKNOWN","rcs_meters":null,"size_class":null,"mass_kg":null,"dimensions":null,"purposes":["comms"],"wikipedia_slug":null,"has_3d_model":false,"image_url":null,"decayed_at":null,"tle_current":{"epoch":"2026-09-20T19:16:31.862784Z","epoch_age_seconds":70435,"freshness":"FRESH","line1":"1 55375U 23013AW  26263.80314656  .00000640  00000+0  32795-4 0  9995","line2":"2 55375  43.0023 299.6030 0001244 279.9385  80.1326 15.27573818201305","mean_motion":15.27573818,"eccentricity":0.0001244,"inclination_deg":43.0023,"raan_deg":299.603,"arg_perigee_deg":279.9385,"mean_anomaly_deg":80.1326,"bstar":3.2795e-5,"rev_number":20130,"period_min":94.267130205553,"perigee_km":482.2140733809,"apogee_km":483.92114108718,"semimajor_km":6861.204607234,"source":"CELESTRAK","updated_at":"2026-09-21T09:00:33.210276Z"}}}